Location: Devore Heights
(34.2372°N, 117.4156°W)
Time: 18:20:42
(UTC+00:00)

deb Explorer IX - Pass Details

Date: 17 September 2024
Orbit: 502 x 816 km, 38.7° (Epoch: 15 October)

Event Time Altitude Azimuth Distance (km) Brightness Sun altitude
Rises 05:08:03 0° 279° (W) 3,408 ? -38.4°
Reaches altitude 10° 05:10:41 10° 284° (WNW) 2,473 ? -38.9°
Enters shadow 05:13:13 25° 294° (WNW) 1,628 ? -39.3°
Maximum altitude 05:16:30 55° 1° (N) 999 - -39.8°
Drops below altitude 10° 05:22:04 10° 79° (E) 2,371 - -40.7°
Sets 05:24:33 0° 84° (E) 3,256 - -41.1°
